sat.trackr.live / text

‹ back to catalog

HULIANWANG DIGUI-35

NORAD 64956 · 2025-159A

PAYLOAD ACTIVE UNKNOWN

§ Identity

Operator
Country
PRC
Launch date
2025-07-27
Launch site
TAISC
Launch vehicle
Mass (kg)
RCS (m²)

External: N2YO · Heavens-Above · Gunter

§ Orbital elements

Epoch: 2026-09-21T22:52:26.868000Z

Period
108.73 min
Inclination
86.4901°
Eccentricity
0.0002316
Mean motion
13.24405277 rev/d
Perigee alt
1,166.2 km
Apogee alt
1,169.7 km
Semi-major
7,546.1 km
B*
-1.9007e-4
RAAN
249.7222°
Arg perigee
180.9847°
Mean anomaly
179.1283°
Rev number
5,593

§ Raw data

HULIANWANG DIGUI-351 64956U 25159A   26264.95308875 -.00000067  00000+0 -19007-3 0  99912 64956  86.4901 249.7222 0002316 180.9847 179.1283 13.24405277 55935

JSON: /api/v1/satellites/64956 · /tle

For live sub-satellite position, see the globe view (requires WebGL).

§ Visibility from observer

Set your observer location to see the next 7 days of passes ≥ 10°. The values pass through the URL so the page stays shareable.

No JS? Fill the form by hand. The geolocation button needs JavaScript.